User: anonymous   Login
Location: Unspecified
(0.0000°N, 0.0000°E)
Time: 06:49:46
(UTC+00:00)
Language:

STARLINK-35423 - Orbit

View from above orbital plane
View from above orbital plane
View from above satellite
View from above satellite

Ground track
Ground track

The orbit is defined by the following mean orbital elements,

1 65873U          26145.58335647 +.00000000 +00000-0 -54446-3 0 00008
2 65873  53.1584 296.5877 0001284  91.3354 295.0363 15.34393650    08
Epoch (UTC): 25 May 2026 14:00:01
Eccentricity: 0.0001284
inclination: 53.1584°
perigee height: 462 km
apogee height: 464 km
right ascension of ascending node: 296.5877°
argument of perigee: 91.3354°
revolutions per day: 15.34393650
mean anomaly at epoch: 295.0363°

The dashed part of the orbit path shows where the satellite is in the earth's shadow,  

DLR